Location: Unspecified
(0.0000°N, 0.0000°E)
Time: 14:23:13
(UTC+00:00)

SR - All Passes

Search period start: 20 July 2019 00:00
Search period end: 30 July 2019 00:00
Orbit: 580 x 876 km, 66.7° (Epoch: 20 July)

Date Brightness Start Highest point End Pass type
(mag) Time Alt. Az. Time Alt. Az. Time Alt. Az.
20 Jul - 05:52:50 10° NE 05:54:46 12° ENE 05:56:43 10° E daylight
20 Jul - 07:30:59 10° NNW 07:36:36 54° WSW 07:42:21 10° S daylight
20 Jul - 18:18:12 10° SSE 18:21:22 20° ESE 18:24:26 10° ENE daylight
20 Jul - 20:00:36 10° WSW 20:03:05 15° WNW 20:05:33 10° NW visible
21 Jul - 06:41:21 10° N 06:47:02 64° ENE 06:52:53 10° SSE daylight
21 Jul - 19:09:26 10° SW 19:13:34 45° WNW 19:17:35 10° N visible
22 Jul - 05:52:44 10° NNE 05:57:29 27° ENE 06:02:22 10° SE daylight
22 Jul - 07:34:43 10° WNW 07:39:21 25° WSW 07:44:04 10° SSW daylight
22 Jul - 18:19:49 10° S 18:24:03 54° ESE 18:28:09 10° NNE daylight
23 Jul - 05:06:42 10° ENE 05:07:55 11° ENE 05:09:08 10° E visible
23 Jul - 06:44:06 10° NNW 06:49:45 58° WSW 06:55:33 10° S daylight
23 Jul - 17:31:32 10° SSE 17:34:28 18° ESE 17:37:21 10° ENE daylight
23 Jul - 19:13:27 10° WSW 19:16:12 17° WNW 19:18:55 10° NNW visible
24 Jul - 05:54:32 10° N 06:00:11 60° ENE 06:06:00 10° SSE daylight
24 Jul - 07:41:01 10° W 07:42:10 11° WSW 07:43:19 10° WSW daylight
24 Jul - 18:22:31 10° SSW 18:26:42 50° WNW 18:30:46 10° N visible
25 Jul - 05:06:01 10° NNE 05:10:39 25° ENE 05:15:23 10° SE visible
25 Jul - 06:47:44 10° NW 06:52:30 27° WSW 06:57:23 10° SSW daylight
25 Jul - 17:33:00 10° S 17:37:10 48° ESE 17:41:14 10° NE daylight
26 Jul - 05:57:13 10° NNW 06:02:55 63° WSW 06:08:46 10° S daylight
26 Jul - 16:44:54 10° SSE 16:47:36 16° ESE 16:50:14 10° ENE daylight
26 Jul - 18:26:22 10° WSW 18:29:20 18° WNW 18:32:15 10° NNW visible
27 Jul - 05:07:43 10° N 05:13:22 55° ENE 05:19:07 10° SSE visible
27 Jul - 06:53:21 10° W 06:55:18 12° WSW 06:57:16 10° SW daylight
27 Jul - 17:35:36 10° SSW 17:39:49 56° WNW 17:43:56 10° N daylight
28 Jul - 04:19:19 10° NNE 04:23:48 23° ENE 04:28:23 10° ESE visible
28 Jul - 06:00:44 10° NW 06:05:40 29° WSW 06:10:40 10° SSW daylight
28 Jul - 16:46:11 10° S 16:50:17 43° ESE 16:54:17 10° NE daylight
29 Jul - 05:10:19 10° NNW 05:16:05 68° WSW 05:21:57 10° SSE visible
29 Jul - 15:58:19 10° SE 16:00:42 15° ESE 16:03:04 10° ENE daylight
29 Jul - 17:39:18 10° WSW 17:42:27 20° WNW 17:45:33 10° NNW daylight
